E5438 Weather Reports


time (UTC)temp
C
wind
direction
speed
KPH
gust
KPH
rain 1hr
cm
rain 24hr
cm
rain mn
cm
humidity
%
barometer
mb
20260504081534 8 278 0.0 0.0 0.00 0.00 0.00 71 1017.6
20260504081015 8 278 0.0 0.0 0.00 0.00 0.00 69 1017.7
20260504080514 9 278 0.0 0.0 0.00 0.00 0.00 69 1017.7
20260504050553 11 278 0.0 0.0 0.00 0.00 0.00 64 1018.8
20260504045549 11 278 0.0 0.0 0.00 0.00 0.00 62 1018.6
20260504045050 11 278 0.0 0.0 0.00 0.00 0.00 60 1018.5
20260504044549 11 278 0.0 0.0 0.00 0.00 0.00 61 1018.5
20260504044049 11 278 0.0 0.0 0.00 0.00 0.00 61 1018.4
20260504043549 11 278 0.0 0.0 0.00 0.00 0.00 61 1018.5
20260504043056 11 278 0.0 0.0 0.00 0.00 0.00 61 1018.4
20260504042548 11 278 0.0 0.0 0.00 0.00 0.00 60 1018.5
20260504042045 11 278 0.0 0.0 0.00 0.00 0.00 59 1018.5
20260504041545 11 278 0.0 0.0 0.00 0.00 0.00 59 1018.4
20260504041044 11 278 0.0 0.0 0.00 0.00 0.00 58 1018.5
20260504040544 11 278 0.0 0.0 0.00 0.00 0.00 58 1018.4
20260504040043 11 278 0.0 0.0 0.00 0.00 0.00 58 1018.3
20260504035543 12 278 0.0 0.0 0.00 0.00 0.00 58 1018.4
20260504035042 12 278 0.0 0.0 0.00 0.00 0.00 58 1018.4
20260504034542 12 278 0.0 0.0 0.00 0.00 0.00 57 1018.2
20260504034042 12 278 0.0 0.0 0.00 0.00 0.00 57 1018.1
20260504033545 12 278 0.0 0.0 0.00 0.00 0.00 57 1018.1
20260504033042 12 278 0.0 0.0 0.00 0.00 0.00 56 1018.0
20260504032542 12 278 0.0 0.0 0.00 0.00 0.00 56 1018.1
20260504032046 12 278 0.0 0.0 0.00 0.00 0.00 56 1018.2
20260504031542 12 278 0.0 0.0 0.00 0.00 0.00 56 1018.1
20260504031041 11 278 0.0 0.0 0.00 0.00 0.00 56 1018.2
20260504030542 11 278 0.0 0.0 0.00 0.00 0.00 56 1018.3
20260504030040 11 278 0.0 0.0 0.00 0.00 0.00 56 1018.2
20260504025540 11 278 0.0 0.0 0.00 0.00 0.00 56 1018.2
20260504025040 11 278 0.0 0.0 0.00 0.00 0.00 57 1018.3
20260504024543 11 278 0.0 0.0 0.00 0.00 0.00 57 1018.3
20260504024044 11 278 0.0 0.0 0.00 0.00 0.00 57 1018.4
20260504023541 11 278 0.0 0.0 0.00 0.00 0.00 56 1018.4
20260504023040 11 278 0.0 0.0 0.00 0.00 0.00 56 1018.3
20260504022540 11 278 0.0 0.0 0.00 0.00 0.00 55 1018.3
20260504022040 11 278 0.0 0.0 0.00 0.00 0.00 55 1018.3
20260504021539 11 278 0.0 0.0 0.00 0.00 0.00 55 1018.3
20260504021042 11 278 0.0 0.0 0.00 0.00 0.00 55 1018.3
20260504020539 11 278 0.0 1.6 0.00 0.00 0.00 55 1018.2
20260504020106 11 278 0.0 1.6 0.00 0.00 0.00 56 1018.1
20260504015540 11 278 0.0 1.6 0.00 0.00 0.00 55 1018.1
20260504015039 12 278 0.0 0.0 0.00 0.00 0.00 55 1018.0
20260504014554 12 278 0.0 0.0 0.00 0.00 0.00 54 1018.0
20260504014039 12 278 0.0 1.6 0.00 0.00 0.00 54 1018.0
20260504013538 12 278 0.0 1.6 0.00 0.00 0.00 54 1018.1
20260504013047 12 278 0.0 0.0 0.00 0.00 0.00 54 1018.1
20260504012540 12 278 0.0 0.0 0.00 0.00 0.00 55 1018.0
20260504012038 12 278 0.0 1.6 0.00 0.00 0.00 53 1017.9
20260504011538 12 277 0.0 3.2 0.00 0.00 0.00 53 1017.9
20260504011038 12 277 0.0 3.2 0.00 0.00 0.00 53 1017.9
20260504010537 12 277 0.0 1.6 0.00 0.00 0.00 53 1017.9
20260504010042 12 277 0.0 1.6 0.00 0.00 0.00 52 1017.8
20260504005537 12 277 0.0 1.6 0.00 0.00 0.00 51 1017.7
20260504005038 12 277 0.0 1.6 0.00 0.00 0.00 52 1017.7
20260504004550 13 277 0.0 0.0 0.00 0.00 0.00 51 1017.6
20260504004036 13 277 0.0 0.0 0.00 0.00 0.00 52 1017.6
20260504003536 13 277 0.0 0.0 0.00 0.00 0.00 51 1017.6
20260504003037 13 277 0.0 0.0 0.00 0.00 0.00 51 1017.5
20260504002536 13 277 0.0 0.0 0.00 0.00 0.00 50 1017.5
20260504002037 13 277 0.0 0.0 0.00 0.00 0.00 50 1017.5
20260504001553 14 277 0.0 0.0 0.00 0.00 0.00 50 1017.4
20260504001035 14 277 0.0 0.0 0.00 0.00 0.00 49 1017.5
20260504000535 14 277 0.0 0.0 0.00 0.00 0.00 49 1017.4
20260504000034 14 277 0.0 0.0 0.00 0.00 0.00 48 1017.5
20260503235536 14 277 0.0 0.0 0.00 0.00 0.00 49 1017.5
20260503235034 15 277 0.0 0.0 0.00 0.00 0.00 47 1017.4
20260503234534 15 277 0.0 0.0 0.00 0.00 0.00 47 1017.5
20260503234036 15 277 0.0 1.6 0.00 0.00 0.00 47 1017.5
20260503233534 15 277 0.0 3.2 0.00 0.00 0.00 46 1017.5
20260503233038 15 275 0.0 3.2 0.00 0.00 0.00 45 1017.4
20260503232533 15 288 0.0 1.6 0.00 0.00 0.00 43 1017.5
20260503232034 15 286 0.0 1.6 0.00 0.00 0.00 46 1017.4
20260503231534 15 284 0.0 3.2 0.00 0.00 0.00 47 1017.4
20260503231033 15 284 0.0 3.2 0.00 0.00 0.00 44 1017.4
20260503230534 16 284 0.0 4.8 0.00 0.00 0.00 43 1017.4
20260503230032 16 279 0.0 4.8 0.00 0.00 0.00 45 1017.4
20260503225531 16 280 0.0 3.2 0.00 0.00 0.00 45 1017.4
20260503225034 16 280 0.0 3.2 0.00 0.00 0.00 44 1017.4
20260503224532 16 259 0.0 4.8 0.00 0.00 0.00 44 1017.4
20260503224034 16 277 0.0 4.8 0.00 0.00 0.00 42 1017.4
20260503223533 16 259 0.0 3.2 0.00 0.00 0.00 44 1017.4
20260503223031 16 275 0.0 3.2 0.00 0.00 0.00 43 1017.3
20260503222530 16 281 0.0 4.8 0.00 0.00 0.00 44 1017.4
20260503222030 16 280 1.6 4.8 0.00 0.00 0.00 41 1017.4
20260503221530 16 290 0.0 4.8 0.00 0.00 0.00 43 1017.3
20260503221030 16 289 0.0 4.8 0.00 0.00 0.00 42 1017.3
20260503220531 16 281 0.0 3.2 0.00 0.00 0.00 44 1017.4
20260503220040 16 292 0.0 3.2 0.00 0.00 0.00 43 1017.5
20260503215528 16 294 0.0 3.2 0.00 0.00 0.00 42 1017.5
20260503215028 16 308 0.0 3.2 0.00 0.00 0.00 42 1017.5
20260503214529 17 315 0.0 3.2 0.00 0.00 0.00 43 1017.5
20260503214032 17 318 0.0 6.4 0.00 0.00 0.00 41 1017.5
20260503213528 17 273 1.6 6.4 0.00 0.00 0.00 43 1017.6
20260503213028 17 285 1.6 3.2 0.00 0.00 0.00 45 1017.6
20260503212528 17 300 0.0 4.8 0.00 0.00 0.00 42 1017.6
20260503212027 17 281 0.0 4.8 0.00 0.00 0.00 43 1017.7
20260503211528 17 304 0.0 4.8 0.00 0.00 0.00 44 1017.7
20260503211027 17 257 1.6 3.2 0.00 0.00 0.00 45 1017.7
20260503210527 17 242 0.0 0.0 0.00 0.00 0.00 45 1017.8
20260503210026 17 263 0.0 0.0 0.00 0.00 0.00 45 1017.8
20260503205529 17 263 0.0 1.6 0.00 0.00 0.00 47 1017.9
20260503205026 17 263 0.0 1.6 0.00 0.00 0.00 48 1017.9
20260503204526 17 263 0.0 3.2 0.00 0.00 0.00 45 1017.9
20260503204025 17 263 0.0 4.8 0.00 0.00 0.00 43 1018.0
20260503203525 17 264 1.6 4.8 0.00 0.00 0.00 43 1018.2
20260503203042 17 157 0.0 3.2 0.00 0.00 0.00 45 1018.2
20260503202524 16 297 0.0 4.8 0.00 0.00 0.00 43 1018.2
20260503202024 16 99 0.0 4.8 0.00 0.00 0.00 43 1018.3
20260503201526 16 298 0.0 3.2 0.00 0.00 0.00 46 1018.5
20260503201024 16 302 0.0 0.0 0.00 0.00 0.00 43 1018.5
20260503200522 16 302 0.0 0.0 0.00 0.00 0.00 43 1018.6
20260503200021 16 301 0.0 0.0 0.00 0.00 0.00 42 1018.7
20260503195521 16 270 0.0 3.2 0.00 0.00 0.00 40 1018.7
20260503195020 16 309 0.0 3.2 0.00 0.00 0.00 39 1018.8
20260503194534 16 308 0.0 6.4 0.00 0.00 0.00 40 1018.9
20260503194019 16 268 0.0 6.4 0.00 0.00 0.00 39 1018.9
20260503193521 16 276 0.0 3.2 0.00 0.00 0.00 41 1019.0
20260503193019 16 315 0.0 0.0 0.00 0.00 0.00 43 1019.1
20260503192518 16 314 0.0 3.2 0.00 0.00 0.00 39 1019.1
20260503192017 16 314 0.0 3.2 0.00 0.00 0.00 40 1019.3
20260503191517 16 300 0.0 3.2 0.00 0.00 0.00 40 1019.3
20260503191016 16 305 0.0 1.6 0.00 0.00 0.00 42 1019.4
20260503190516 16 290 0.0 6.4 0.00 0.00 0.00 40 1019.5
20260503190019 16 290 0.0 6.4 0.00 0.00 0.00 42 1019.5
20260503185520 15 313 0.0 4.8 0.00 0.00 0.00 42 1019.5
20260503185016 15 300 0.0 4.8 0.00 0.00 0.00 41 1019.5
20260503184522 15 288 0.0 4.8 0.00 0.00 0.00 40 1019.7
20260503184014 15 292 1.6 4.8 0.00 0.00 0.00 40 1019.7
20260503183514 15 315 0.0 3.2 0.00 0.00 0.00 42 1019.7
20260503183013 15 330 0.0 3.2 0.00 0.00 0.00 39 1019.7
20260503182513 15 323 0.0 0.0 0.00 0.00 0.00 38 1019.7
20260503182013 15 283 0.0 0.0 0.00 0.00 0.00 39 1019.8
20260503181513 15 298 0.0 3.2 0.00 0.00 0.00 42 1019.9
20260503181013 15 264 0.0 3.2 0.00 0.00 0.00 42 1019.9
20260503180511 15 277 0.0 3.2 0.00 0.00 0.00 44 1019.9
20260503180010 15 267 0.0 4.8 0.00 0.00 0.00 46 1019.9
20260503175509 15 263 0.0 4.8 0.00 0.00 0.00 44 1020.1
20260503175008 15 269 1.6 4.8 0.00 0.00 0.00 44 1020.0
20260503174508 15 49 0.0 3.2 0.00 0.00 0.00 47 1020.0
20260503174007 15 278 0.0 3.2 0.00 0.00 0.00 50 1020.0
20260503173507 15 310 0.0 3.2 0.00 0.00 0.00 48 1020.1
20260503173007 15 263 0.0 4.8 0.00 0.00 0.00 49 1020.2
20260503172510 15 260 1.6 4.8 0.00 0.00 0.00 51 1020.3
20260503172011 14 260 1.6 4.8 0.00 0.00 0.00 50 1020.4
20260503171506 14 288 0.0 3.2 0.00 0.00 0.00 49 1020.4
20260503171007 14 19 0.0 3.2 0.00 0.00 0.00 47 1020.4
20260503170506 14 280 0.0 3.2 0.00 0.00 0.00 52 1020.5
20260503150555 11 118 0.0 3.2 0.00 0.00 0.00 60 1021.3
20260503131034 8 279 0.0 0.0 0.00 0.00 0.00 78 1020.8
20260503130534 8 279 0.0 0.0 0.00 0.00 0.00 78 1020.8
20260503110522 4 279 0.0 0.0 0.00 0.00 0.00 86 1019.6